Weather History for KODX - December, 2012

Change the Weather History Date:

Thursday, December 27, 2012

  Actual Average Record
Temperature  
Mean Temperature 15 °F 23 °F  
Max Temperature 20 °F 35 °F 62 °F (2013)
Min Temperature 10 °F 12 °F 5 °F (2014)
Degree Days  
Heating Degree Days 50 42  
Month to date heating degree days 1003 1077  
Since 1 July heating degree days 2529 2558  
Cooling Degree Days 0 0  
Month to date cooling degree days 0 0  
Year to date cooling degree days 1220 845  
Moisture  
Dew Point 13 °F    
Average Humidity 84    
Maximum Humidity 92    
Minimum Humidity 76    
Precipitation  
Precipitation 0.00 in 0.01 in 0.59 in (1987)
Month to date precipitation 0.30 0.54  
Year to date precipitation 11.79 24.89  
Sea Level Pressure  
Sea Level Pressure 29.96 in    
Wind  
Wind Speed 7 mph (ESE)    
Max Wind Speed 14 mph    
Max Gust Speed 18 mph    
Visibility 4 miles    
Events Snow    
T = Trace of Precipitation, MM = Missing Value Source: NWS Daily Summary

Daily Weather History Graph

Daily Weather History Graph

Search for Another Location

Airport or City:

Trip Planner

Search our weather history database for the weather conditions in past years. The results will help you decide how hot, cold, wet, or windy it might be!

Date:

Astronomy

Dec. 27, 2012 Rise Set
Actual Time 8:01 AM CST 5:12 PM CST
Civil Twilight 7:30 AM CST 5:44 PM CST
Nautical Twilight 6:55 AM CST 6:19 PM CST
Astronomical Twilight 6:21 AM CST 6:52 PM CST
Moon 4:57 PM CST (12/27) 7:13 AM CST (12/27)
Length of Visible Light 10h 13m
Length of Day
9h 10m
Full, 100% of the Moon is Illuminated
Dec 27
Full
Dec 28
Full
Jan 4
Last Quarter
Jan 11
New
Jan 18
First Quarter

Hourly Weather History & Observations

Time (CST) Temp. Windchill Dew Point Humidity Pressure Visibility Wind Dir Wind Speed Gust Speed Precip Events Conditions
12:53 AM 10.9 °F 1.4 °F 6.1 °F 81% 30.11 in 10.0 mi ESE 5.8 mph - N/A   Overcast
1:53 AM 12.0 °F 0.5 °F 6.1 °F 77% 30.09 in 10.0 mi SE 8.1 mph - N/A   Overcast
2:53 AM 12.9 °F 0.7 °F 7.0 °F 77% 30.11 in 10.0 mi SE 9.2 mph - N/A   Overcast
3:53 AM 12.0 °F -1.3 °F 7.0 °F 80% 30.07 in 10.0 mi ESE 10.4 mph - N/A   Overcast
4:53 AM 12.0 °F -2.0 °F 8.1 °F 84% 30.04 in 3.0 mi ESE 11.5 mph - 0.00 in Snow Light Snow
5:44 AM 12.2 °F 0.7 °F 8.6 °F 85% 29.92 in 9.0 mi ESE 8.1 mph - 0.00 in   Overcast
5:53 AM 12.2 °F -0.2 °F 8.6 °F 85% 29.92 in 9.0 mi ESE 9.2 mph - N/A   Overcast
6:17 AM 12.2 °F 0.7 °F 8.6 °F 85% 29.92 in 8.0 mi East 8.1 mph - N/A   Overcast
6:53 AM 14.0 °F 2.0 °F 10.0 °F 84% 30.04 in 8.0 mi East 9.2 mph - N/A   Overcast
7:01 AM 14.0 °F 2.0 °F 10.4 °F 86% 29.92 in 8.0 mi East 9.2 mph - N/A   Overcast
7:22 AM 14.0 °F 3.9 °F 10.4 °F 86% 29.92 in 8.0 mi East 6.9 mph - N/A   Overcast
7:53 AM 14.0 °F 2.9 °F 10.9 °F 88% 30.05 in 8.0 mi ESE 8.1 mph - N/A   Overcast
8:37 AM 15.8 °F 3.4 °F 12.2 °F 86% 29.92 in 2.0 mi ESE 10.4 mph - 0.00 in Snow Light Snow
8:45 AM 15.8 °F 2.1 °F 12.2 °F 86% 29.92 in 1.8 mi ESE 12.7 mph - 0.00 in Snow Light Snow
8:53 AM 15.1 °F 2.5 °F 12.0 °F 88% 30.04 in 1.2 mi ESE 10.4 mph - 0.00 in Snow Light Snow
9:04 AM 15.8 °F 2.7 °F 12.2 °F 86% 29.92 in 1.0 mi ESE 11.5 mph - 0.00 in Snow Light Snow
9:09 AM 15.8 °F 2.7 °F 12.2 °F 86% 29.92 in 0.8 mi ESE 11.5 mph - 0.00 in Snow Light Snow
9:21 AM 15.8 °F 2.7 °F 12.2 °F 86% 29.92 in 1.0 mi ESE 11.5 mph - 0.00 in Snow Light Snow
9:28 AM 15.8 °F 3.4 °F 12.2 °F 86% 29.92 in 1.2 mi ESE 10.4 mph - 0.00 in Snow Light Snow
9:53 AM 16.0 °F 4.4 °F 12.0 °F 84% 30.05 in 1.8 mi ESE 9.2 mph - 0.00 in Snow Light Snow
10:00 AM 15.8 °F 3.4 °F 12.2 °F 86% 29.93 in 2.5 mi ESE 10.4 mph - 0.00 in Snow Light Snow
10:07 AM 15.8 °F 4.2 °F 12.2 °F 86% 29.93 in 3.0 mi ESE 9.2 mph - 0.00 in Snow Light Snow
10:21 AM 15.8 °F 2.1 °F 12.2 °F 86% 29.93 in 1.8 mi ESE 12.7 mph - 0.00 in Snow Light Snow
10:53 AM 17.1 °F 5.8 °F 14.0 °F 88% 30.05 in 1.8 mi ESE 9.2 mph - 0.00 in Snow Light Snow
11:03 AM 17.6 °F 6.4 °F 14.0 °F 86% 29.93 in 2.0 mi ESE 9.2 mph - 0.00 in Snow Light Snow
11:27 AM 17.6 °F 5.7 °F 14.0 °F 86% 29.92 in 3.0 mi SE 10.4 mph - 0.00 in Snow Light Snow
11:53 AM 18.0 °F 5.4 °F 14.0 °F 84% 30.03 in 3.0 mi SE 11.5 mph - 0.00 in Snow Light Snow
12:36 PM 19.4 °F 8.6 °F 15.8 °F 86% 29.89 in 2.5 mi SE 9.2 mph - 0.00 in Snow Light Snow
12:53 PM 19.0 °F 8.2 °F 15.1 °F 85% 30.00 in 1.5 mi SE 9.2 mph - 0.00 in Snow Light Snow
1:53 PM 19.0 °F 8.2 °F 15.1 °F 85% 29.98 in 2.0 mi ESE 9.2 mph - 0.00 in Snow Light Snow
2:09 PM 19.4 °F 10.4 °F 15.8 °F 86% 29.87 in 3.0 mi ESE 6.9 mph - 0.00 in Snow Light Snow
2:19 PM 19.4 °F 10.4 °F 15.8 °F 86% 29.87 in 3.0 mi ESE 6.9 mph - 0.00 in Snow Light Snow
2:53 PM 19.9 °F 10.1 °F 15.1 °F 81% 29.98 in 3.0 mi ESE 8.1 mph - 0.00 in Snow Light Snow
3:01 PM 19.4 °F 9.5 °F 15.8 °F 86% 29.87 in 2.0 mi ESE 8.1 mph - 0.00 in Snow Light Snow
3:10 PM 19.4 °F 11.5 °F 15.8 °F 86% 29.87 in 1.5 mi SE 5.8 mph - 0.00 in Snow Light Snow
3:27 PM 19.4 °F 10.4 °F 15.8 °F 86% 29.87 in 1.0 mi SE 6.9 mph - 0.00 in Snow Light Snow
3:35 PM 19.4 °F 11.5 °F 15.8 °F 86% 29.88 in 1.0 mi ESE 5.8 mph - 0.00 in Snow Light Snow
3:53 PM 19.0 °F 10.0 °F 16.0 °F 88% 29.99 in 1.0 mi SE 6.9 mph - 0.00 in Snow Light Snow
4:06 PM 19.4 °F 11.5 °F 15.8 °F 86% 29.88 in 1.2 mi SE 5.8 mph - 0.00 in Snow Light Snow
4:53 PM 19.0 °F 12.3 °F 15.1 °F 85% 30.00 in 1.8 mi SE 4.6 mph - 0.00 in Snow Light Snow
5:01 PM 19.4 °F 12.8 °F 15.8 °F 86% 29.89 in 2.0 mi SE 4.6 mph - 0.00 in Snow Light Snow
5:11 PM 19.4 °F 12.8 °F 15.8 °F 86% 29.90 in 1.8 mi SE 4.6 mph - 0.00 in Snow Light Snow
5:31 PM 19.4 °F 12.8 °F 15.8 °F 86% 29.90 in 3.0 mi SE 4.6 mph - 0.00 in Snow Light Snow
5:50 PM 17.6 °F 12.3 °F 15.8 °F 93% 29.91 in 3.0 mi SSE 3.5 mph - 0.00 in Snow Light Snow
5:53 PM 19.4 °F - 15.8 °F 86% 29.91 in 3.0 mi Calm Calm - N/A Snow Light Snow
6:20 PM 17.6 °F - 15.8 °F 93% 29.92 in 3.0 mi Calm Calm - 0.00 in Snow Light Snow
6:53 PM 18.0 °F - 15.1 °F 88% 30.04 in 4.0 mi Calm Calm - 0.00 in Snow Light Snow
7:53 PM 18.0 °F - 15.1 °F 88% 30.05 in 5.0 mi Calm Calm - 0.00 in   Overcast
8:53 PM 17.1 °F - 14.0 °F 88% 30.05 in 5.0 mi Calm Calm - N/A   Overcast
9:20 PM 17.6 °F - 15.8 °F 93% 29.93 in 4.0 mi Calm Calm - 0.00 in   Overcast
9:41 PM 17.6 °F - 15.8 °F 93% 29.93 in 2.5 mi Calm Calm - 0.00 in Snow Light Snow
9:51 PM 17.6 °F - 15.8 °F 93% 29.93 in 3.0 mi Calm Calm - 0.00 in Snow Light Snow
9:53 PM 18.0 °F - 15.1 °F 88% 30.04 in 3.0 mi Calm Calm - 0.00 in Snow Light Snow
10:21 PM 17.6 °F - 15.8 °F 93% 29.93 in 2.5 mi Calm Calm - 0.00 in Snow Light Snow
10:38 PM 17.6 °F - 14.0 °F 86% 29.93 in 3.0 mi Calm Calm - 0.00 in Snow Light Snow
10:53 PM 18.0 °F 8.7 °F 15.1 °F 88% 30.04 in 3.0 mi NW 6.9 mph - 0.00 in Snow Light Snow
11:53 PM 17.1 °F 6.6 °F 12.9 °F 84% 30.05 in 6.0 mi NW 8.1 mph - 0.00 in   Overcast